Regional Weather Roundup
Issued by NWS

Home | Current Version | Previous Version | Graphics & Text | Print | Product List | Glossary Off
Versions: 1 2 3 4 5 6 7 8 9 10 11 12 13 14 15 16 17 18 19 20 21 22 23 24 25 26 27 28 29 30 31 32 33 34 35 36 37 38 39 40 41 42 43 44 45 46 47 48 49 50

000
ASUS43 KDMX 252304
RWRIA

WEATHER ROUNDUP FOR IOWA
NATIONAL WEATHER SERVICE DES MOINES IA
  ISSUED BY NWS QUAD CITIES IA IL
500 PM CST SUN JAN 25 2015

NOTE: "FAIR" INDICATES FEW OR NO CLOUDS BELOW 12,000 FEET WITH NO
SIGNIFICANT WEATHER AND/OR OBSTRUCTIONS TO VISIBILITY.

* - THESE STATIONS ARE NOT NWS STATIONS...THUS NOT UNDER NWS
QUALITY CONTROL.  THEY ALSO DO NOT REPORT WEATHER SUCH
AS PRECIPITATION OR FOG.

IAZ001>003-012>014-020>022-031>034-043>046-260000-
   NORTHWEST IOWA

CITY           SKY/WX    TMP DP  RH WIND       PRES   REMARKS
CARROLL *      CLOUDY    32  28  86 N12       30.05R WCI  23
CHEROKEE *     CLOUDY    32  30  91 N7        30.05R WCI  26
DENNISON *     CLOUDY    34  30  86 N6        30.04R WCI  29
LE MARS *      CLOUDY    36  32  87 N7        30.06R WCI  30
ORANGE CITY *  CLOUDY    36  28  75 CALM      30.04R
SHELDON *      CLOUDY    32  32 100 CALM      30.03R
SIOUX CITY     CLOUDY    37  33  85 NW8       30.06R WCI  31
SPENCER        CLOUDY    32  27  81 N7        30.04R WCI  26
STORM LAKE *   CLOUDY    32  28  86 N6        30.04S WCI  26
$$

IAZ055>058-069>071-079>083-090>094-260000-
   SOUTHWEST IOWA

CITY           SKY/WX    TMP DP  RH WIND       PRES   REMARKS
ATLANTIC *     CLOUDY    34  28  80 N13G20    30.05R WCI  25
AUDUBON *      CLOUDY    34  28  80 N13       30.05R WCI  25
CLARINDA *     MOCLDY    37  30  75 N15       30.06R WCI  28
COUNCIL BLFS * CLOUDY    37  30  75 N8G15     30.05R WCI  31
CRESTON *      CLOUDY    32  30  93 N13G21    30.03R WCI  22
HARLAN *       MOCLDY    34  32  93 N7G14     30.08R WCI  28
LAMONI         CLOUDY    34  30  85 N14       30.01R WCI  25
RED OAK *      CLEAR     36  28  75 NE8       30.06R WCI  29
SHENANDOAH *   MOCLDY    39  30  70 N9G15     30.06R WCI  33
$$

IAZ047>049-059>061-072>074-084-260000-
   CENTRAL IOWA

CITY           SKY/WX    TMP DP  RH WIND       PRES   REMARKS
AMES           CLOUDY    32  26  78 N10       30.03R WCI  24
ANKENY *       CLOUDY    34  28  80 N10       30.03R WCI  26
BOONE *        CLOUDY    32  30  93 N13G18    30.02R WCI  22
CHARITON *     CLOUDY    32  28  86 N13G18    30.02R WCI  22
DES MOINES     CLOUDY    34  28  79 N9        30.03R WCI  27
GRINNELL *     CLOUDY    30  26  84 N9        30.01R WCI  22
KNOXVILLE *    CLOUDY    32  27  80 N8G14     30.01R WCI  25
MARSHALLTOWN   CLOUDY    32  27  81 N8        30.00R WCI  25
PELLA *        CLOUDY    31  27  86 N8        30.03R WCI  24
PERRY *          N/A     32  30  90 N14       30.04R WCI  22
$$

IAZ004>006-015-016-023>025-035-036-260000-
   NORTH CENTRAL IOWA

CITY           SKY/WX    TMP DP  RH WIND       PRES   REMARKS
ALGONA *       CLOUDY    28  25  86 N12       30.05R WCI  18
CLARION *      CLOUDY    30  30 100 NW13      30.03R WCI  20
ESTHERVILLE    CLOUDY    27  24  89 N6        30.03S WCI  20
FORT DODGE *   CLOUDY    30  25  80 N7        30.04R WCI  23
MASON CITY     CLOUDY    28  24  85 NW12      30.03R WCI  18
WEBSTER CITY * CLOUDY    32  32 100 N9        30.01R WCI  24
IOWA FALLS *   CLOUDY    31  27  83 N13       30.02R WCI  21
$$

IAZ007>011-017>019-026>030-037>042-050>054-066-260000-
   NORTHEAST IOWA

CITY           SKY/WX    TMP DP  RH WIND       PRES   REMARKS
CEDAR RAPIDS   MOCLDY    28  21  75 N14       29.98R WCI  17
CHARLES CITY * CLOUDY    28  27  93 N12       30.01S WCI  18
CLINTON *      CLEAR     25  18  74 N15       29.99R WCI  12
DECORAH *      PTCLDY    27  18  69 N6        29.99S WCI  20
DUBUQUE        CLEAR     22  14  71 NE16      29.97R WCI   8
MONTICELLO *   PTCLDY    25  19  80 NE7G14    30.00R WCI  17
OELWEIN *      PTCLDY    28  21  74 N10       30.00R WCI  19
WATERLOO       PTCLDY    29  23  78 N8        30.01R WCI  21
$$

IAZ064-065-067-068-078-260000-
   EAST CENTRAL IOWA

CITY           SKY/WX    TMP DP  RH WIND       PRES   REMARKS
DAVENPORT      CLOUDY    26  17  68 NE14      29.96R WCI  14
IOWA CITY      PTCLDY    27  20  75 N10       30.01R WCI  17
MT. PLEASANT * CLOUDY    28  24  82 N17G24    29.96S WCI  16
MUSCATINE *    CLOUDY    28  21  74 N15G21    29.99R WCI  17
QUAD CITIES    CLOUDY    28  18  66 NE12      29.96R WCI  18
$$

IAZ062-063-075>077-085>089-095>099-260000-
   SOUTHEAST IOWA

CITY           SKY/WX    TMP DP  RH WIND       PRES   REMARKS
BURLINGTON     CLOUDY    30  26  85 N16       29.94R WCI  19
FAIRFIELD *    CLOUDY    30  25  80 N15G21    29.98R WCI  19
FORT MADISON * CLOUDY    30  27  86 N16G25    29.95R WCI  19
KEOKUK *       CLOUDY    30  27  86 N14G25    29.94R WCI  20
OTTUMWA        CLOUDY    30  26  85 N9        29.99R WCI  22
WASHINGTON *   CLOUDY    28  28 100 N14       29.98R WCI  17
$$

ABBREVIATIONS USED IN REMARKS
   TC - TEMPERATURES IN CELSIUS
  WCI - WIND CHILL INDEX
   HX - HEAT INDEX
  VSB - VISIBILITY
$$


USA.gov is the U.S. government's official web portal to all federal, state and local government web resources and services.